sat.trackr.live / text

‹ back to catalog

STARLINK-34611

NORAD 64918 · 2025-157Q

PAYLOAD ACTIVE UNKNOWN

§ Identity

Operator
Country
US
Launch date
2025-07-26
Launch site
AFETR
Launch vehicle
Mass (kg)
RCS (m²)

Purposes: comms

External: N2YO · Heavens-Above · Gunter

§ Orbital elements

Epoch: 2026-05-24T20:34:15.209472Z

Period
93.90 min
Inclination
53.1599°
Eccentricity
0.0000867
Mean motion
15.33567921 rev/d
Perigee alt
464.6 km
Apogee alt
465.8 km
Semi-major
6,843.3 km
B*
5.4352e-4
RAAN
351.9997°
Arg perigee
81.3351°
Mean anomaly
278.7750°
Rev number
4,778

§ Raw data

STARLINK-346111 64918U 25157Q   26144.85712048  .00017555  00000+0  54352-3 0  99942 64918  53.1599 351.9997 0000867  81.3351 278.7750 15.33567921 47781

JSON: /api/v1/satellites/64918 · /tle

For live sub-satellite position, see the globe view (requires WebGL).

§ Visibility from observer

Set your observer location to see the next 7 days of passes ≥ 10°. The values pass through the URL so the page stays shareable.

No JS? Fill the form by hand. The geolocation button needs JavaScript.